Wichita, KS

1:04 AM CST on February 14, 2016 (GMT -0600)
Wichita Eisenhower National Airport

Weather History for KICT - April, 2013

Change the Weather History Date:

Friday, April 26, 2013

  Actual Average Record
Temperature  
Mean Temperature 54 °F 60 °F  
Max Temperature 58 °F 71 °F 93 °F (1989)
Min Temperature 50 °F 48 °F 31 °F (1907)
Degree Days  
Heating Degree Days 11 7  
Month to date heating degree days 410 267  
Since 1 July heating degree days 4347 4484  
Cooling Degree Days 0 1  
Month to date cooling degree days 3 19  
Year to date cooling degree days 3 21  
Growing Degree Days 3 (Base 50)    
Moisture  
Dew Point 48 °F    
Average Humidity 70    
Maximum Humidity 96    
Minimum Humidity 43    
Precipitation  
Precipitation 0.19 in 0.11 in 5.10 in (2009)
Month to date precipitation 3.45 2.16  
Year to date precipitation 8.58 6.86  
Snow  
Snow 0.00 in 0.00 in 0.00 in (2007)
Month to date snowfall 0.2 0.2  
Since 1 July snowfall 30.0 14.9  
Snow Depth 0.00 in    
Sea Level Pressure  
Sea Level Pressure 30.10 in    
Wind  
Wind Speed 11 mph (ESE)    
Max Wind Speed 24 mph    
Max Gust Speed 29 mph    
Visibility 8 miles    
Events Rain , Thunderstorm    
T = Trace of Precipitation, MM = Missing Value Source: NWS Daily Summary

Daily Weather History Graph

Daily Weather History Graph

Search for Another Location

Airport or City:

Trip Planner

Search our weather history database for the weather conditions in past years. The results will help you decide how hot, cold, wet, or windy it might be!

Date:

Astronomy

Apr. 26, 2013 Rise Set
Actual Time 6:39 AM CDT 8:15 PM CDT
Civil Twilight 6:12 AM CDT 8:43 PM CDT
Nautical Twilight 5:38 AM CDT 9:17 PM CDT
Astronomical Twilight 5:03 AM CDT 9:52 PM CDT
Moon 9:38 PM CDT (4/26) 7:09 AM CDT (4/26)
Length of Visible Light 14h 31m
Length of Day
13h 35m
Full, 99% of the Moon is Illuminated
Apr 26
Full
May 2
Last Quarter
May 9
New
May 17
First Quarter
May 24
Full

Hourly Weather History & Observations

Time (CDT) Temp. Dew Point Humidity Pressure Visibility Wind Dir Wind Speed Gust Speed Precip Events Conditions
12:53 AM 57.9 °F 36.0 °F 44% 30.12 in 10.0 mi South 8.1 mph - N/A   Overcast
1:53 AM 57.2 °F 37.4 °F 48% 30.13 in 10.0 mi South 11.5 mph - N/A   Overcast
2:53 AM 55.9 °F 39.9 °F 55% 30.07 in 10.0 mi South 5.8 mph - N/A Thunderstorm Thunderstorm
3:53 AM 53.1 °F 45.0 °F 74% 30.06 in 10.0 mi SSE 10.4 mph - 0.03 in Rain , Thunderstorm Light Thunderstorms and Rain
4:16 AM 53.6 °F 44.6 °F 72% 30.07 in 10.0 mi SSE 8.1 mph - 0.00 in   Overcast
4:53 AM 54.0 °F 46.0 °F 75% 30.06 in 10.0 mi ESE 4.6 mph - 0.00 in   Overcast
5:53 AM 54.0 °F 45.0 °F 72% 30.05 in 10.0 mi ESE 12.7 mph - N/A   Mostly Cloudy
6:53 AM 54.0 °F 46.0 °F 75% 30.06 in 10.0 mi ESE 10.4 mph - 0.00 in   Overcast
7:45 AM 53.6 °F 46.4 °F 77% 30.11 in 10.0 mi SE 17.3 mph - 0.00 in Rain , Thunderstorm Light Thunderstorms and Rain
7:53 AM 53.1 °F 48.0 °F 83% 30.10 in 4.0 mi SSE 23.0 mph 28.8 mph 0.01 in Rain , Thunderstorm Heavy Thunderstorms and Rain
8:25 AM 51.8 °F 48.2 °F 88% 30.12 in 10.0 mi SE 12.7 mph - 0.04 in Rain Light Rain
8:53 AM 52.0 °F 48.9 °F 89% 30.12 in 9.0 mi ESE 11.5 mph - 0.04 in Rain Light Rain
9:53 AM 51.1 °F 50.0 °F 96% 30.10 in 8.0 mi ESE 15.0 mph - 0.08 in Rain Light Rain
10:53 AM 52.0 °F 48.9 °F 89% 30.10 in 8.0 mi SE 19.6 mph 28.8 mph 0.00 in Rain Light Rain
11:53 AM 52.0 °F 48.0 °F 86% 30.11 in 10.0 mi SE 18.4 mph 24.2 mph 0.00 in   Overcast
12:53 PM 52.0 °F 48.0 °F 86% 30.11 in 10.0 mi SE 13.8 mph 24.2 mph 0.00 in   Overcast
1:53 PM 52.0 °F 48.0 °F 86% 30.11 in 10.0 mi SE 11.5 mph - N/A   Overcast
2:53 PM 52.0 °F 48.9 °F 89% 30.11 in 5.0 mi ESE 13.8 mph - 0.00 in   Light Drizzle
3:23 PM 51.8 °F 48.2 °F 88% 30.11 in 4.0 mi SE 11.5 mph - 0.00 in   Light Drizzle
3:43 PM 51.8 °F 50.0 °F 94% 30.10 in 2.0 mi SE 13.8 mph - 0.00 in   Light Drizzle
3:53 PM 51.1 °F 50.0 °F 96% 30.10 in 2.0 mi SE 12.7 mph - 0.01 in   Light Drizzle
4:01 PM 51.8 °F 50.0 °F 94% 30.10 in 2.0 mi ESE 11.5 mph - 0.00 in Rain Light Rain
4:17 PM 51.8 °F 50.0 °F 94% 30.09 in 1.8 mi ESE 11.5 mph - 0.01 in Rain Light Rain
4:24 PM 51.8 °F 50.0 °F 94% 30.09 in 2.0 mi ESE 10.4 mph - 0.01 in Rain Light Rain
4:53 PM 51.1 °F 50.0 °F 96% 30.08 in 3.0 mi ESE 11.5 mph - 0.02 in Rain Light Rain
5:53 PM 52.0 °F 50.0 °F 93% 30.10 in 10.0 mi ESE 8.1 mph - 0.00 in   Overcast
6:30 PM 51.8 °F 50.0 °F 94% 30.09 in 10.0 mi ESE 10.4 mph - N/A   Overcast
6:53 PM 52.0 °F 50.0 °F 93% 30.11 in 10.0 mi East 6.9 mph - N/A   Overcast
7:53 PM 52.0 °F 50.0 °F 93% 30.12 in 10.0 mi East 5.8 mph - N/A   Overcast
8:29 PM 51.8 °F 50.0 °F 94% 30.11 in 10.0 mi East 6.9 mph - N/A   Overcast
8:53 PM 52.0 °F 50.0 °F 93% 30.11 in 10.0 mi ENE 6.9 mph - N/A   Overcast
9:53 PM 51.1 °F 50.0 °F 96% 30.12 in 7.0 mi East 8.1 mph - 0.00 in   Light Drizzle
10:26 PM 51.8 °F 50.0 °F 94% 30.10 in 10.0 mi ENE 9.2 mph - 0.00 in   Overcast
10:53 PM 52.0 °F 50.0 °F 93% 30.11 in 10.0 mi ENE 11.5 mph - 0.00 in   Overcast
11:12 PM 51.8 °F 50.0 °F 94% 30.13 in 10.0 mi NE 8.1 mph - N/A   Overcast
11:53 PM 52.0 °F 50.0 °F 93% 30.14 in 10.0 mi ENE 8.1 mph - N/A   Overcast